[[{"header":{"parameterUnit":"m.s-1","parameterCategory":1,"la1":30.2991,"la2":30.254,"lo1":-89.0895,"lo2":-89.0444,"dy":0.0017,"dx":0.0017,"nx":28,"ny":28,"refTime":"2024-10-15T21:00:00:Z","depth":0,"parameterNumber":2,"parameterNumberName":"U-component_of_WINDS"},"data":[0,0,0,0,0,0,0,0,0,0,0,0,0,0,0,0,0,0,0,0,0,0,0,0,0,0,0,0,0,0,0,0,0,0,0,0,0,0,0,0,0,0,0,0,0,0,0,0,0,0,0,0,0,0,0,0,0,0,-1.6146,-1.6146,0,-1.6153,-1.6153,-1.6153,-1.6127,-1.6127,-1.6126,-1.6125,-1.6131,-1.6132,-1.6133,0,0,0,0,0,0,0,0,0,0,0,0,0,-1.611,-1.611,-1.6146,-1.6146,-1.6146,-1.6153,-1.6153,-1.6153,-1.6127,-1.6127,-1.6126,-1.6125,-1.6131,-1.6132,-1.6133,0,0,0,0,0,0,0,0,0,0,0,0,0,-1.6122,-1.6111,-1.6146,-1.6134,-1.6133,-1.6153,-1.6153,-1.6153,-1.6128,-1.6127,-1.6125,-1.6124,-1.6131,-1.6132,-1.6133,-1.6164,0,0,-1.6137,-1.6138,0,0,0,0,0,0,0,0,-1.6121,-1.6123,-1.6136,-1.6135,-1.6134,-1.6138,-1.6142,-1.6157,-1.6128,-1.613,-1.6125,-1.6124,-1.6134,-1.6135,-1.6139,-1.6164,-1.6165,-1.6137,-1.6138,-1.6139,-1.6139,0,0,0,0,0,0,0,-1.612,-1.6123,-1.6148,-1.6136,-1.6135,-1.6128,-1.6129,-1.6145,-1.6138,-1.6129,-1.6128,-1.6129,-1.6134,-1.6138,-1.6139,-1.6165,-1.6137,-1.6138,-1.6139,-1.614,-1.6215,-1.6216,0,0,0,0,0,0,-1.6121,-1.6122,-1.6148,-1.6149,-1.6125,-1.613,-1.613,-1.6138,-1.6138,-1.6137,-1.613,-1.6128,-1.6136,-1.6138,-1.6139,-1.6174,-1.6139,-1.614,-1.6141,-1.6213,-1.6215,-1.6216,0,0,0,0,0,0,-1.612,-1.6124,-1.6148,-1.6135,-1.6138,-1.6132,-1.614,-1.6139,-1.6143,-1.6138,-1.6137,-1.6135,-1.6135,-1.6137,-1.6158,-1.6174,-1.6141,-1.6142,-1.6212,-1.6214,-1.6215,-1.6246,0,0,0,0,0,0,-1.6119,-1.6124,-1.6136,-1.6135,-1.6138,-1.6167,-1.6141,-1.614,-1.6145,-1.6142,-1.6143,-1.6142,-1.6135,-1.6156,-1.6159,-1.6175,-1.6143,-1.621,-1.6213,-1.6215,-1.6243,-1.6248,-1.6253,0,0,0,0,0,-1.6118,-1.6144,-1.6136,-1.614,-1.6153,-1.6168,-1.617,-1.6161,-1.6147,-1.6158,-1.6155,-1.6142,-1.6172,-1.6158,-1.6162,-1.6179,-1.6209,-1.6212,-1.6215,-1.6241,-1.6247,-1.6252,0,0,0,0,0,0,-1.6146,-1.6144,-1.6135,-1.6161,-1.6165,-1.6164,-1.6178,-1.6168,-1.6175,-1.6172,-1.616,-1.6161,-1.6183,-1.6183,-1.6168,-1.6208,-1.6188,-1.6192,-1.6207,-1.6213,-1.6218,-1.6217,-1.6144,0,0,0,0,0,-1.6155,-1.6168,-1.6165,-1.6188,-1.6191,-1.6184,-1.619,-1.6183,-1.6186,-1.6188,-1.6186,-1.619,-1.62,-1.6206,-1.6216,-1.6243,-1.6242,-1.6256,-1.6261,-1.6265,-1.6268,-1.6282,-1.6287,-1.6225,-1.6225,-1.6225,0,0,-1.6174,-1.6174,-1.6183,-1.6194,-1.6196,-1.6208,-1.6186,-1.62,-1.6209,-1.619,-1.6209,-1.6208,-1.6211,-1.6235,-1.6245,-1.6235,-1.6285,-1.6269,-1.6272,-1.6272,-1.6285,-1.6291,-1.6296,-1.6227,-1.6226,-1.6226,0,0,-1.6215,-1.6217,-1.6236,-1.6238,-1.6242,-1.6237,-1.6242,-1.6242,-1.6241,-1.626,-1.6245,-1.6256,-1.6274,-1.6276,-1.628,-1.6321,-1.6309,-1.6325,-1.6349,-1.6362,-1.6367,-1.6372,-1.6385,-1.6391,-1.6328,-1.6328,-1.6328,0,-1.6237,-1.6256,-1.6247,-1.6262,-1.6267,-1.625,-1.6269,-1.6272,-1.6278,-1.6282,-1.6271,-1.6292,-1.6293,-1.6317,-1.6327,-1.6331,-1.6335,-1.6324,-1.6367,-1.6372,-1.6375,-1.6388,-1.6394,-1.6329,-1.6329,-1.6329,-1.6329,0,-1.6284,-1.6297,-1.6312,-1.6319,-1.6325,-1.6343,-1.6335,-1.6343,-1.6335,-1.6332,-1.6351,-1.6352,-1.636,-1.6366,-1.6358,-1.6388,-1.6382,-1.637,-1.6349,-1.6383,-1.6395,-1.64,-1.6332,-1.6331,-1.6331,-1.633,0,0,-1.6342,-1.6342,-1.6348,-1.635,-1.6353,-1.6363,-1.6379,-1.6387,-1.6394,-1.6399,-1.6411,-1.6427,-1.6415,-1.6419,-1.6412,-1.6424,-1.6456,-1.641,-1.641,-1.6418,-1.6488,-1.6496,-1.6502,-1.6448,-1.6449,-1.645,-1.6487,0,-1.6381,-1.6409,-1.64,-1.6428,-1.644,-1.6424,-1.6438,-1.6441,-1.6438,-1.6447,-1.6444,-1.6455,-1.6439,-1.6441,-1.6453,-1.645,-1.647,-1.6447,-1.6459,-1.646,-1.6458,-1.6509,-1.6518,-1.6553,-1.6492,-1.6493,-1.6493,0,-1.643,-1.6437,-1.6466,-1.6465,-1.647,-1.6483,-1.6489,-1.6499,-1.6501,-1.6498,-1.6503,-1.6493,-1.6509,-1.6489,-1.651,-1.6495,-1.6499,-1.6499,-1.65,-1.65,-1.6478,-1.6509,-1.6564,-1.6569,-1.6501,-1.65,-1.65,0,-1.6468,-1.6484,-1.6503,-1.6506,-1.6506,-1.6515,-1.6516,-1.6518,-1.6523,-1.6529,-1.6532,-1.654,-1.6544,-1.655,-1.6543,-1.6529,-1.6564,-1.6544,-1.6561,-1.6561,-1.6568,-1.6568,-1.6624,-1.6573,-1.6573,-1.6573,-1.6573,0,-1.6512,-1.6529,-1.652,-1.6532,-1.6551,-1.6542,-1.6561,-1.656,-1.6561,-1.6572,-1.6559,-1.657,-1.6559,-1.6569,-1.6563,-1.658,-1.6583,-1.658,-1.6578,-1.6581,-1.6581,-1.6582,-1.6579,-1.6575,-1.6574,-1.6574,-1.6574,0,-1.6556,-1.6551,-1.657,-1.6569,-1.657,-1.6584,-1.6583,-1.6593,-1.659,-1.6604,-1.6606,-1.6601,-1.6611,-1.6604,-1.6615,-1.6611,-1.6633,-1.6628,-1.6632,-1.663,-1.6647,-1.6645,-1.6706,-1.6713,-1.6659,-1.6659,-1.666,0,-1.6584,-1.6598,-1.6598,-1.6604,-1.6606,-1.6616,-1.6622,-1.6613,-1.6619,-1.6623,-1.6633,-1.6642,-1.6649,-1.6666,-1.6662,-1.667,-1.6665,-1.6685,-1.6666,-1.6667,-1.6663,-1.6662,-1.6663,-1.6689,-1.6689,-1.669,-1.669,0,-1.6634,-1.663,-1.6638,-1.6646,-1.6653,-1.6658,-1.6662,-1.6668,-1.6659,-1.6667,-1.6677,-1.6682,-1.6693,-1.6702,-1.6708,-1.6708,-1.6698,-1.6697,-1.6701,-1.6703,-1.6704,-1.6702,-1.6642,-1.6695,-1.6695,-1.6694,-1.6694,-1.6694,-1.667,-1.6681,-1.6682,-1.6692,-1.6694,-1.6699,-1.6708,-1.6706,-1.6714,-1.6722,-1.6717,-1.6729,-1.673,-1.6738,-1.674,-1.6748,-1.674,-1.6746,-1.6748,-1.6749,-1.6751,-1.6704,-1.675,-1.675,-1.675,-1.6749,-1.6749,0,-1.6717,-1.6718,-1.6727,-1.6733,-1.674,-1.673,-1.6734,-1.6741,-1.6752,-1.6755,-1.6762,-1.6773,-1.6782,-1.6779,-1.6787,-1.6794,-1.679,-1.6797,-1.6795,-1.6795,-1.6759,-1.6754,-1.68,-1.68,-1.68,-1.68,-1.68,-1.68,-1.6743,-1.676,-1.6757,-1.6775,-1.6776,-1.6787,-1.679,-1.6794,-1.6796,-1.6809,-1.6816,-1.6815,-1.6815,-1.6823,-1.683,-1.6829,-1.6832,-1.684,-1.6838,-1.6803,-1.6798,-1.6793,-1.6788,-1.6842,-1.6842,-1.6873,-1.6874,-1.6874]},{"header":{"parameterUnit":"m.s-1","parameterCategory":1,"la1":30.2991,"la2":30.254,"lo1":-89.0895,"lo2":-89.0444,"dy":0.0017,"dx":0.0017,"nx":28,"ny":28,"refTime":"2024-10-15T21:00:00:Z","depth":0,"parameterNumber":3,"parameterNumberName":"V-component_of_WINDS"},"data":[0,0,0,0,0,0,0,0,0,0,0,0,0,0,0,0,0,0,0,0,0,0,0,0,0,0,0,0,0,0,0,0,0,0,0,0,0,0,0,0,0,0,0,0,0,0,0,0,0,0,0,0,0,0,0,0,0,0,0.8011,0.8011,0,0.8043,0.8044,0.8044,0.8048,0.8048,0.8048,0.8048,0.808,0.8081,0.8082,0,0,0,0,0,0,0,0,0,0,0,0,0,0.7951,0.7952,0.8011,0.8011,0.8012,0.8043,0.8044,0.8044,0.8049,0.8048,0.8048,0.8047,0.8079,0.8081,0.8082,0,0,0,0,0,0,0,0,0,0,0,0,0,0.7979,0.7952,0.8011,0.8018,0.8019,0.8043,0.8044,0.8044,0.8049,0.8048,0.8048,0.8047,0.8079,0.8081,0.8082,0.8102,0,0,0.8088,0.8088,0,0,0,0,0,0,0,0,0.7978,0.7982,0.8016,0.8017,0.8018,0.8041,0.8034,0.8063,0.8049,0.8037,0.8048,0.8047,0.8067,0.807,0.8077,0.8103,0.8105,0.8088,0.8089,0.8089,0.809,0,0,0,0,0,0,0,0.7976,0.798,0.8024,0.8017,0.8018,0.8018,0.8022,0.804,0.8054,0.8038,0.8039,0.8042,0.8068,0.8075,0.8078,0.8105,0.8088,0.8089,0.809,0.8091,0.8146,0.8146,0,0,0,0,0,0,0.7973,0.7979,0.8023,0.8025,0.7997,0.802,0.8024,0.8034,0.8054,0.8057,0.8043,0.8042,0.8073,0.8076,0.8079,0.8101,0.8089,0.8091,0.8092,0.8146,0.8146,0.8147,0,0,0,0,0,0,0.7972,0.7977,0.8021,0.8002,0.8007,0.8021,0.8033,0.8035,0.8043,0.8058,0.806,0.8048,0.8072,0.8076,0.8095,0.8102,0.8092,0.8093,0.8145,0.8146,0.8146,0.8147,0,0,0,0,0,0,0.797,0.7976,0.7985,0.8002,0.8009,0.8038,0.8034,0.8036,0.8046,0.8046,0.8063,0.8066,0.8072,0.8093,0.8097,0.8104,0.8095,0.8144,0.8145,0.8146,0.8146,0.8147,0.8148,0,0,0,0,0,0.7968,0.7984,0.7985,0.799,0.8019,0.8039,0.8042,0.805,0.8047,0.8054,0.8063,0.8065,0.8101,0.8095,0.81,0.8108,0.8144,0.8145,0.8146,0.8146,0.8147,0.8148,0,0,0,0,0,0,0.7968,0.7986,0.7988,0.801,0.8023,0.8039,0.805,0.8052,0.8066,0.8065,0.8074,0.8077,0.8095,0.8104,0.8096,0.8126,0.8122,0.8124,0.812,0.8122,0.8123,0.812,0.8096,0,0,0,0,0,0.797,0.7985,0.8,0.8019,0.8025,0.8036,0.8045,0.8049,0.8063,0.8068,0.8079,0.8091,0.8104,0.8114,0.8127,0.8147,0.815,0.8155,0.8156,0.8157,0.8158,0.8167,0.8169,0.815,0.815,0.815,0,0,0.7976,0.7988,0.7997,0.8019,0.8029,0.8043,0.8041,0.8056,0.8066,0.807,0.8088,0.8096,0.811,0.8129,0.8138,0.8137,0.8164,0.8158,0.8159,0.816,0.8168,0.817,0.8172,0.815,0.815,0.815,0,0,0.7993,0.8004,0.8019,0.8029,0.8044,0.8051,0.8055,0.807,0.8076,0.8094,0.8097,0.8108,0.8133,0.8142,0.815,0.8167,0.8168,0.8171,0.8177,0.8185,0.8187,0.8188,0.8193,0.8195,0.8173,0.8173,0.8173,0,0.7997,0.8019,0.8027,0.8041,0.805,0.8054,0.8068,0.8078,0.8096,0.8102,0.81,0.8129,0.8139,0.8159,0.8162,0.8169,0.8172,0.8169,0.8186,0.8188,0.8189,0.8193,0.8195,0.8173,0.8173,0.8173,0.8173,0,0.8023,0.8038,0.8048,0.8065,0.8075,0.809,0.8099,0.8108,0.8111,0.8118,0.8135,0.8147,0.8162,0.8167,0.8171,0.8187,0.8185,0.8185,0.8181,0.8191,0.8195,0.8197,0.8173,0.8173,0.8173,0.8173,0,0,0.8042,0.8062,0.8065,0.8072,0.8088,0.8099,0.8113,0.8127,0.8134,0.8146,0.8157,0.8176,0.8175,0.8184,0.8188,0.8196,0.8207,0.8194,0.8195,0.8195,0.8223,0.8223,0.8225,0.8208,0.8208,0.8208,0.8221,0,0.806,0.8085,0.8091,0.8112,0.8124,0.8127,0.8138,0.8149,0.8155,0.8166,0.8173,0.8185,0.8184,0.8189,0.8196,0.8204,0.8212,0.8203,0.8217,0.8217,0.8212,0.8227,0.8228,0.8239,0.8223,0.8224,0.8224,0,0.8084,0.8095,0.8117,0.8129,0.8135,0.8145,0.8158,0.8169,0.8179,0.8183,0.8192,0.8195,0.8208,0.8204,0.8221,0.8214,0.822,0.8224,0.8225,0.8226,0.8221,0.8228,0.8244,0.8245,0.8227,0.8227,0.8226,0,0.8093,0.8114,0.813,0.8136,0.815,0.8157,0.8164,0.8174,0.8182,0.8193,0.8197,0.8209,0.8216,0.8225,0.8231,0.8227,0.8247,0.8243,0.8249,0.8249,0.8253,0.8253,0.8269,0.8258,0.8258,0.8258,0.8258,0,0.8111,0.8124,0.8134,0.8143,0.8157,0.8163,0.8176,0.8183,0.8192,0.8202,0.8205,0.8214,0.8221,0.8231,0.8236,0.8248,0.8251,0.8254,0.8255,0.8253,0.8253,0.8257,0.8256,0.8258,0.8258,0.8258,0.8258,0,0.8124,0.8131,0.8147,0.8159,0.8163,0.8172,0.8182,0.8191,0.8196,0.8209,0.8212,0.8221,0.8232,0.8238,0.8253,0.8256,0.8269,0.8271,0.8266,0.8266,0.8271,0.827,0.829,0.8293,0.8281,0.8281,0.8281,0,0.8134,0.8144,0.8157,0.8163,0.817,0.8181,0.8188,0.8194,0.8201,0.8213,0.822,0.8231,0.8241,0.8259,0.8266,0.8276,0.8277,0.8283,0.8279,0.8276,0.8276,0.8275,0.8275,0.8284,0.8284,0.8284,0.8284,0,0.8152,0.8154,0.8165,0.8176,0.8184,0.8194,0.8203,0.8208,0.8215,0.8223,0.8234,0.8242,0.8256,0.8266,0.8277,0.8283,0.8284,0.8286,0.8287,0.8285,0.8282,0.8283,0.8267,0.8285,0.8285,0.8285,0.8285,0.8285,0.8163,0.8171,0.8181,0.8191,0.8199,0.8207,0.8214,0.8221,0.823,0.8242,0.8245,0.8256,0.8265,0.828,0.8286,0.8294,0.8293,0.8296,0.8297,0.8297,0.8297,0.8281,0.8297,0.8296,0.8296,0.8296,0.8296,0,0.8179,0.8185,0.8195,0.8207,0.8215,0.8216,0.8225,0.8232,0.8242,0.825,0.8259,0.8271,0.8281,0.8289,0.8299,0.8304,0.8305,0.8306,0.8306,0.8307,0.8298,0.8295,0.8305,0.8305,0.8305,0.8305,0.8305,0.8305,0.8189,0.8202,0.8205,0.8221,0.8227,0.8238,0.8243,0.825,0.8256,0.8269,0.8278,0.8282,0.829,0.83,0.8309,0.8311,0.8314,0.8315,0.8317,0.8309,0.8308,0.8307,0.8304,0.8316,0.8316,0.8325,0.8325,0.8325]}]]